Location: Izdebno
(52.6670°N, 16.2170°E)
Time: 02:51:55
(UTC+02:00)

Transit 2A - Pass Details

Date: 29 February 2024
Orbit: 596 x 956 km, 66.7° (Epoch: 21 April)

Event Time Altitude Azimuth Distance (km) Brightness Sun altitude
Rises 21:56:11 0° 286° (WNW) 2,851 9.7 -37.5°
Reaches altitude 10° 21:59:13 10° 309° (NW) 1,971 8.8 -37.9°
Enters shadow 22:00:25 14° 324° (NW) 1,750 8.5 -38.0°
Maximum altitude 22:01:56 16° 347° (NNW) 1,651 - -38.1°
Drops below altitude 10° 22:04:45 10° 25° (NNE) 2,047 - -38.4°
Sets 22:07:59 0° 48° (NE) 3,023 - -38.7°
